Rogers City, MI

11:20 AM EDT on October 17, 2017 (GMT -0400)
Presque Isle County

Weather History for KPZQ - August, 2014

Change the Weather History Date:

Monday, August 25, 2014

  Actual Average (KAPN) Record (KAPN)
Temperature  
Mean Temperature 70 °F -  
Max Temperature 77 °F 77 °F 100 °F (1948)
Min Temperature 62 °F 52 °F 36 °F (1951)
Cooling Degree Days 4    
Growing Degree Days 20 (Base 50)    
Moisture  
Dew Point 67 °F    
Average Humidity 94    
Maximum Humidity 100    
Minimum Humidity 78    
Precipitation  
Precipitation 0.00 in - - ()
Sea Level Pressure  
Sea Level Pressure 30.04 in    
Wind  
Wind Speed 7 mph (South)    
Max Wind Speed 14 mph    
Max Gust Speed 23 mph    
Visibility 9 miles    
Events Rain    
Averages and records for this station are not official NWS values.
T = Trace of Precipitation, MM = Missing Value Source: NWS Daily Summary

Daily Weather History Graph

Daily Weather History Graph

Search for Another Location

Airport or City:

Trip Planner

Search our weather history database for the weather conditions in past years. The results will help you decide how hot, cold, wet, or windy it might be!

Date:

Astronomy

Aug. 25, 2014 Rise Set
Actual Time 6:48 AM EDT 8:25 PM EDT
Civil Twilight 6:17 AM EDT 8:56 PM EDT
Nautical Twilight 5:39 AM EDT 9:34 PM EDT
Astronomical Twilight 4:58 AM EDT 10:14 PM EDT
Moon 6:55 AM EDT (8/25) 8:11 PM EDT (8/25)
Length of Visible Light 14h 39m
Length of Day
13h 37m
New Moon, 0% of the Moon is Illuminated
Aug 25
New Moon
Sep 2
First Quarter
Sep 8
Full
Sep 15
Last Quarter
Sep 24
New

Hourly Weather History & Observations

Time (EDT) Temp. Dew Point Humidity Pressure Visibility Wind Dir Wind Speed Gust Speed Precip Events Conditions
12:14 AM 63.0 °F 63.0 °F 100% 30.12 in 5.0 mi SSE 5.8 mph - N/A   Scattered Clouds
12:35 AM 63.0 °F 63.0 °F 100% 30.11 in 7.0 mi SE 5.8 mph - N/A   Clear
12:55 AM 63.0 °F 63.0 °F 100% 30.11 in 5.0 mi SE 5.8 mph - N/A   Scattered Clouds
1:14 AM 62.8 °F 62.8 °F 100% 30.11 in 5.0 mi South 4.6 mph - N/A   Scattered Clouds
1:35 AM 62.6 °F 62.6 °F 100% 30.10 in 7.0 mi SSE 5.8 mph - N/A   Scattered Clouds
1:54 AM 62.8 °F 62.8 °F 100% 30.10 in 7.0 mi SE 4.6 mph - N/A   Clear
2:14 AM 62.6 °F 62.6 °F 100% 30.09 in 7.0 mi SE 4.6 mph - N/A   Clear
2:35 AM 62.6 °F 62.6 °F 100% 30.08 in 7.0 mi SE 5.8 mph - N/A   Clear
2:54 AM 62.6 °F 62.6 °F 100% 30.08 in 7.0 mi SE 3.5 mph - N/A   Clear
3:14 AM 62.4 °F 62.4 °F 100% 30.07 in 7.0 mi SE 5.8 mph - N/A   Clear
3:34 AM 62.6 °F 62.6 °F 100% 30.07 in 7.0 mi SSE 5.8 mph - N/A   Clear
3:54 AM 63.1 °F 63.0 °F 99% 30.08 in 10.0 mi SSE 5.8 mph - N/A   Clear
4:15 AM 63.5 °F 62.8 °F 97% 30.08 in 10.0 mi SSE 5.8 mph - N/A   Clear
4:34 AM 63.3 °F 62.6 °F 97% 30.08 in 10.0 mi South 5.8 mph - N/A   Clear
5:15 AM 63.1 °F 62.6 °F 98% 30.08 in 10.0 mi South 4.6 mph - N/A   Clear
5:34 AM 63.0 °F 62.6 °F 99% 30.08 in 10.0 mi SSE 5.8 mph - N/A   Clear
5:55 AM 63.0 °F 62.6 °F 99% 30.09 in 10.0 mi South 4.6 mph - N/A   Clear
6:15 AM 63.0 °F 62.6 °F 99% 30.08 in 10.0 mi South 4.6 mph - N/A   Clear
6:34 AM 63.1 °F 62.8 °F 99% 30.08 in 10.0 mi South 6.9 mph - N/A   Clear
6:55 AM 63.3 °F 62.8 °F 98% 30.08 in 7.0 mi South 8.1 mph - N/A   Clear
7:14 AM 63.1 °F 63.0 °F 99% 30.08 in 7.0 mi South 8.1 mph - N/A   Clear
7:34 AM 63.9 °F 63.5 °F 99% 30.07 in 7.0 mi South 10.4 mph - N/A   Clear
7:55 AM 64.8 °F 64.0 °F 98% 30.07 in 7.0 mi South 10.4 mph - N/A   Clear
8:14 AM 65.7 °F 64.4 °F 96% 30.06 in 7.0 mi South 9.2 mph - N/A   Clear
8:35 AM 66.6 °F 64.8 °F 94% 30.06 in 10.0 mi South 10.4 mph - N/A   Clear
8:54 AM 67.3 °F 64.9 °F 92% 30.06 in 10.0 mi South 10.4 mph - N/A   Clear
9:14 AM 68.2 °F 65.7 °F 92% 30.06 in 10.0 mi SSW 11.5 mph 16.1 mph N/A   Clear
9:35 AM 69.1 °F 66.2 °F 91% 30.06 in 10.0 mi SSW 11.5 mph 16.1 mph N/A   Clear
9:47 AM 69.4 °F 66.2 °F 89% 30.06 in 10.0 mi SSW 8.1 mph - N/A   Scattered Clouds
10:37 AM 73.4 °F 68.0 °F 83% 30.06 in 10.0 mi SSE 6.9 mph - N/A   Clear
11:01 AM 75.2 °F 68.0 °F 78% 30.06 in 10.0 mi South 6.9 mph - N/A   Mostly Cloudy
1:10 PM 74.3 °F 69.4 °F 85% 30.03 in 10.0 mi SE 5.8 mph - N/A   Scattered Clouds
1:15 PM 74.3 °F 69.6 °F 85% 30.03 in 10.0 mi SSE 9.2 mph - N/A Rain Rain
1:20 PM 73.9 °F 69.8 °F 87% 30.03 in 10.0 mi South 10.4 mph - N/A Rain Light Rain
2:05 PM 73.4 °F 71.6 °F 94% 30.02 in 7.0 mi South 8.1 mph - N/A   Scattered Clouds
2:20 PM 73.4 °F 71.6 °F 94% 30.02 in 7.0 mi South 9.2 mph - N/A   Clear
2:45 PM 73.4 °F 71.6 °F 94% 30.02 in 7.0 mi South 11.5 mph 16.1 mph N/A   Clear
2:57 PM 75.2 °F 71.6 °F 89% 30.01 in 7.0 mi South 12.7 mph - N/A   Clear
3:25 PM 75.2 °F 71.6 °F 89% 30.00 in 10.0 mi South 11.5 mph - N/A   Clear
3:41 PM 75.2 °F 71.6 °F 89% 30.00 in 10.0 mi South 12.7 mph 18.4 mph N/A   Scattered Clouds
4:04 PM 77.0 °F 71.6 °F 83% 29.98 in 10.0 mi South 13.8 mph 23.0 mph N/A   Mostly Cloudy
7:16 PM 77.0 °F 71.6 °F 83% 29.98 in 10.0 mi South 3.5 mph - N/A   Clear
7:36 PM 77.0 °F 71.6 °F 83% 29.98 in 10.0 mi SSW 4.6 mph - N/A   Clear
8:07 PM 75.2 °F 71.6 °F 89% 29.97 in 10.0 mi South 5.8 mph - N/A   Clear
8:25 PM 75.2 °F 71.6 °F 89% 29.97 in 10.0 mi South 8.1 mph - N/A   Clear
8:42 PM 75.2 °F 71.6 °F 89% 29.96 in 10.0 mi South 10.4 mph - N/A   Clear
8:56 PM 75.2 °F 71.6 °F 89% 29.97 in 10.0 mi South 8.1 mph - N/A   Clear
9:22 PM 73.4 °F 71.6 °F 94% 29.96 in 10.0 mi South 6.9 mph - N/A   Clear
9:38 PM 73.4 °F 71.6 °F 94% 29.97 in 10.0 mi South 8.1 mph - N/A   Clear
10:01 PM 73.4 °F 71.6 °F 94% 29.97 in 10.0 mi South 8.1 mph - N/A   Clear
10:16 PM 73.4 °F 71.6 °F 94% 29.96 in 10.0 mi South 8.1 mph - N/A   Clear
10:40 PM 71.6 °F 69.8 °F 94% 29.97 in 10.0 mi South 6.9 mph - N/A   Clear
10:57 PM 71.6 °F 71.6 °F 100% 29.96 in 10.0 mi South 6.9 mph - N/A   Clear
11:16 PM 71.6 °F 69.8 °F 94% 29.96 in 10.0 mi SSW 4.6 mph - N/A   Clear
11:36 PM 71.6 °F 69.8 °F 94% 29.95 in 10.0 mi South 6.9 mph - N/A   Clear
11:56 PM 71.6 °F 71.6 °F 100% 29.96 in 10.0 mi SSW 6.9 mph - N/A   Clear